星链-3836 (STARLINK-3836 )

导读

STARLINK-3836是美国SpaceX公司星链星座的一员,于2022年5月13日发射升空。作为星链低轨互联网星座组成部分,该卫星运行在近地轨道,承担为全球提供高速卫星互联网接入服务的任务,尤其为偏远无网络区域提供连接支持,单星设计寿命超5年,配备霍尔推进器可自主规避太空碰撞,是星链全球组网建设的重要节点。

Basic Information
目录编号:
52577
目录名称:
STARLINK-3836
国际标识:
2022-051AT
轨道中心:
EARTH
卫星名称:
星链-3836
卫星全名:
星链-3836 (STARLINK-3836 )
卫星状态:
在轨 (已飞行1496 天)
发射日期:
2022-05-13 UTC
国别 :
美国 (US)
星等 :
--
Orbit Information
数据来源 国际轨道数据 AOE轨道数据
星历时间 2026-06-17T06:58:47+0800
17小时前
查看轨道信息
2026-06-15T00:00:00+0800
3天前
查看轨道信息
半长轴 6917.906km 6917.899km
偏心率 0.0001344 0.0001178
轨道倾角 53.160° 53.160°
近地点辐角 90.514° 101.718°
升交点赤经 48.398° 58.695°
平近点角 269.600° 48.264°
近地点 538.839km 538.947km
远地点 540.699km 540.577km
周期 95.438分钟 95.438分钟
每日圈数 15.088319 15.08834
Detailed Information
固有亮度:
5
最大亮度:
2.5
卫星平台:
Starlink v1.5
覆盖范围:
全球
运营商:
太空探索技术公司
运营商所在国:
美国
制造商(研发单位):
太空探索技术公司
制造商所在国:
美国
使用方式:
暂无
Satellite Introduction
星链(Starlink)计划是由太空探索技术公司(SpaceX)提出的一个巨型低轨卫星互联网星座项目,计划在2019年至2024年间在太空搭建由约1.2万颗卫星组成的“星链”网络,其中1584颗将部署在地球上空550千米处的近地轨道,并从2020年开始工作。该卫星仍在工作。
2D Orbit Map
3D Orbit Map
Orbit Altitude Analysis Chart
Orbit Inclination Analysis Chart
Orbit Comprehensive Analysis Chart
View Comprehensive Chart